weather.gov     
National Weather Service

Regional Weather Roundup
NWS Homepage
This page is being discontinued on March 12, 2014.
The same data is available at this site. Please update your bookmarks.
Thank you, and we apologize for the inconvenience.
Please send an email to SR-SRH.Webmaster@noaa.gov with any concerns.


Current Version
Previous Version:    01  02  03  04  05  06  07  08  09  10  11  12  13  14  15  16  17  18  19  20  21  22  23  24  25  26  27  28  29  30  
   31  32  33  34  35  36  37  38  39  40  41  42  43  44  45  46  47  48  49  50  51  52  53  
[Printable]
779
ASCA42 TJSJ 260011
RWRPR
PUERTO RICO/U.S. VIRGIN ISLANDS HOURLY WEATHER ROUNDUP
NATIONAL WEATHER SERVICE SAN JUAN PR
800 PM AST SAT OCT 25 2014

PRZ001-004-260100-
PUERTO RICO

CITY           SKY/WX    TMP DP  RH WIND       PRES   REMARKS
SAN JUAN LMM   PTCLDY    84  75  74 SE7       29.87R HX  92
AGUADILLA      CLEAR     81  75  83 CALM      29.88R
CEIBA          CLEAR     82  75  78 S6        29.90R
$$

PRZ006-007-260100-
U.S. VIRGIN ISLANDS

CITY           SKY/WX    TMP DP  RH WIND       PRES   REMARKS
CHRISTIANSTED  PTCLDY    82  73  74 SE8       29.90
$$

HOURLY WEATHER ROUNDUP FOR THE NEWS MEDIA

CITY           SKY/WX    TMP DP  RH WIND       PRES   REMARKS
MIAMI          PTCLDY    76  60  57 NE5       29.92R
ORLANDO        CLEAR     72  59  63 NE7       29.97R
NEW YORK       PTCLDY    62  46  55 SW12      29.66S
NEWARK         MOCLDY    64  44  48 SW13      29.64S
CHICAGO        CLEAR     63  28  26 W13       29.93R
HARTFORD       CLEAR     54  46  74 SW6       29.60F
BOSTON         MOCLDY    60  44  55 W12       29.58F
DALLAS         CLEAR     83  59  44 S6        30.04S
PHILADELPHIA   PTCLDY    64  45  49 SW14      29.69S




U.S. Dept. of Commerce
NOAA National Weather Service
1325 East West Highway
Silver Spring, MD 20910
E-mail: w-nws.webmaster@noaa.gov
Page last modified: May 16, 2007
NATIONAL WEATHER SERVICE: for Safety, for Work, for Fun - FOR LIFE